SCP
0 0 0 0 0 0 0 0 0 0 0 0 0 0 0 0 0 0 0 0 0 0 0 0 0 0 0 0 0 0 0 0 0 0 0 0 0 0
0 0 0 0 0 0 0 0 0 0 0 0 0 0 0 0 0 0 0 0 0 0 0 0 0 0 0 0 0 0 0 0 0 0 0 0 0 0
0 0 0 0 0 0 0 0 0 0 0 0 0 0 0 0 0 0 0 0 0 0 0 0 0 0 0 0 0 0 0 0 0 0 0 0 0 0
0 0 0 0 0 0 0 0 0 0 0 0 0 0 0 0 0 0 0 0 0 0 0 0 0 0 0 0 0 0 0 0 0 0 0 0 0 0
0 0 0 0 0 0 0 0 0 0 0 0 0 0 0 0 0 0 0 0 0 0 0 0 0 0 0 0 0 0 0 0 0 0 0 0 0 0
0 0 0 0 0 0 0 0 0 0 0 0 0 0 0 0 0 0 0 0 0 0 0 0 0 0 0 0 0 0 0 0 0 0 0 0 0 0
0 0 0 0 0 0 0 0 0 0 0 0 0 0 0 0 0 0 0 0 0 0 0 0 0 0 0 0 0 -0 -0 0 0 0 0 0 0 0
0 0 0 0 0 0 0 0 0 0 0 0 0 0 0 0 0 0 0 0 0 0 0 0 0 0 0 0 0 0 0 0 0 0 0 0 0 -0
0 0 0 0 0 0 0 0 0 0 0 0 0 0 0 0 0 0 0 0 0 0 0 0 0 0 0 0 -0 -0 -0 0 0 0 0 0 -0 0
0 0 0 0 0 0 0 0 0 0 0 0 0 0 0 0 0 0 0 0 0 0 0 0 0 0 0 0 -0 -0 -0 0 0 0 0 0 -0 -0
0 0 0 0 0 0 0 0 0 0 0 0 0 0 0 0 0 0 0 0 0 0 0 0 0 0 0 0 0 -0 -0 -0 -0 -0 -0 -0 0 0
0 0 0 0 0 0 0 0 0 0 0 0 0 0 0 0 0 0 0 0 0 0 0 0 0 0 0 0 0 -0 -0 -0 -0 -0 -0 -0 -0 0
0 0 0 0 0 0 0 0 0 0 0 0 0 0 0 0 0 0 0 0 0 0 0 0 0 0 0 -0 -0 -0 0 0 0 0 0 -0 -0 0
0 0 0 0 0 0 0 0 0 0 0 0 0 0 0 0 0 0 0 0 0 0 0 0 0 0 -0 -0 -0 0 0 0 0 0 0 0 -0 -0
0 0 0 0 0 0 0 0 0 0 0 0 0 0 0 0 0 0 0 0 0 0 0 0 0 0 -0 -0 -0 -0 0 0 0 0 0 0 0 0
0 0 0 0 0 0 0 0 0 0 0 0 0 0 0 0 0 0 0 0 0 0 0 0 0 0 0 0 0 0 0 0 0 0 0 0 0 0
0 0 0 0 0 0 0 0 0 0 0 0 0 0 0 0 0 0 0 0 0 0 0 0 0 0 0 0 0 0 0 0 0 0 0 0 0 0
0 0 0 0 0 0 0 0 0 0 0 0 0 0 0 0 0 0 0 0 0 0 0 0 0 0 0 0 0 0 0 0 0 0 0 0 0 0
0 0 0 0 0 0 0 0 0 0 0 0 0 0 0 0 0 0 0 0 0 0 0 0 -0 0 -0 0 0 0 0 0 0 0 0 0 0 0
0 0 0 0 0 0 0 0 0 0 0 0 0 0 0 0 0 0 0 0 0 0 0 0 -0 -0 -0 0 0 0 -0 0 0 0 0 0 0 0
0 0 0 0 0 0 0 0 0 0 0 0 0 0 0 0 0 0 0 -0 -0 0 0 -0 -0 -0 -0 -0 0 0 0 0 0 0 0 0 0 0
0 0 0 0 0 0 0 0 0 0 0 0 0 0 0 0 0 0 0 0 0 0 -0 -0 -0 -0 0 0 -0 0 0 0 0 -0 -0 -0 0 0
0 0 0 0 0 0 0 0 0 0 0 0 0 0 0 0 0 0 0 0 0 0 -0 -0 -0 0 -0 0 -0 -0 -0 0 0 0 0 -0 -0 -0
Wind_Speed_500mb
47 47 52 53 54 58 57 54 56 66 88 62 56 76 67 70 68 69 74 72 67 70 72 80 82 82 81 82 85 88 87 89 87 85 86 84 85 88
50 54 55 56 61 62 61 59 54 60 77 91 90 85 79 76 79 72 79 71 74 69 71 75 89 91 97 97 93 94 94 93 87 86 87 86 86 88
52 53 57 59 64 63 64 62 59 59 74 102 94 96 98 98 91 86 80 76 75 62 82 93 92 84 82 82 83 83 84 91 94 93 95 96 95 95
54 55 59 61 64 66 70 65 66 65 69 80 97 110 99 98 98 89 78 53 84 78 83 78 77 79 79 76 81 84 85 88 89 92 94 94 95 93
55 57 61 61 66 70 68 70 70 68 68 76 94 101 98 89 87 84 87 86 79 76 76 74 70 70 76 85 81 83 84 84 84 83 83 82 83 86
57 57 59 62 66 64 66 66 68 78 82 87 89 87 84 75 81 85 96 82 86 86 76 66 84 86 80 79 80 81 82 84 85 86 86 88 90 90
59 61 63 61 54 52 58 72 74 77 83 84 87 73 82 81 84 89 90 91 84 81 87 86 77 80 89 86 80 77 75 74 77 78 80 81 83 84
61 61 57 55 57 60 62 62 60 70 81 66 92 85 92 88 92 89 82 91 97 83 65 102 92 91 91 86 79 74 75 78 80 81 81 83 84 85
59 60 57 59 65 67 72 68 72 59 67 71 84 81 85 90 84 91 94 85 89 97 80 92 89 91 90 86 79 76 76 78 78 80 82 82 83 84
59 56 59 67 63 67 74 67 84 85 83 75 67 77 79 84 87 83 85 90 92 89 68 79 91 94 91 89 86 77 69 68 68 71 74 77 79 81
62 62 60 60 69 65 68 82 81 87 66 70 63 74 77 63 61 67 78 79 87 87 86 76 85 87 97 94 70 68 67 67 69 72 77 80 81 82
68 67 63 66 63 62 71 75 80 70 78 76 85 68 61 63 61 60 67 76 79 90 75 74 86 79 67 74 68 87 80 79 68 70 73 79 82 85
73 75 79 65 64 67 61 63 59 68 73 72 67 71 71 72 69 66 64 65 76 81 79 68 77 78 63 84 87 90 75 79 78 68 57 58 62 75
68 76 71 68 66 62 55 50 56 58 62 65 71 74 74 74 71 68 64 63 62 68 65 56 67 70 78 84 85 88 84 79 64 61 64 65 63 58
64 65 67 66 62 56 49 51 52 60 62 67 71 70 72 73 73 72 67 65 66 61 59 54 56 61 63 72 80 81 85 77 58 68 67 57 53 43
66 71 67 58 51 49 52 58 61 60 55 62 66 68 71 74 73 69 73 72 74 71 63 60 53 51 56 53 56 68 67 60 73 65 57 57 42 4
59 62 59 58 57 55 59 63 65 63 64 63 65 68 73 74 73 68 69 70 68 72 74 68 52 47 35 36 55 68 68 68 62 67 60 65 54 23
54 56 58 57 58 59 65 70 68 66 65 63 61 67 72 73 72 71 66 67 67 68 67 62 60 59 56 46 59 76 74 71 61 67 74 58 71 25
52 55 57 57 58 61 67 69 70 67 65 62 63 66 68 68 69 69 68 66 66 65 58 55 56 56 60 51 57 67 85 77 64 68 74 76 68 63
52 56 58 57 58 63 68 68 68 68 63 62 61 61 65 67 67 66 64 62 62 60 55 49 50 51 47 37 35 64 75 84 86 69 68 74 76 61
56 57 56 56 59 65 67 66 66 66 63 60 57 62 66 66 62 60 59 55 53 54 50 48 45 35 26 29 43 52 60 67 73 81 75 66 79 94
56 57 54 54 60 65 64 65 65 62 59 59 61 63 63 60 57 57 51 55 51 45 37 35 35 32 28 33 38 40 52 63 69 72 82 92 73 75
55 55 54 55 63 64 63 62 60 60 61 62 60 60 59 54 48 48 44 50 44 37 30 30 31 30 27 30 30 37 47 56 67 73 79 83 88 88
Wind_Direction_500mb
319 319 317 318 318 321 321 319 314 308 309 311 309 311 310 309 307 304 299 299 297 294 292 291 292 289 285 285 286 280 278 274 272 269 267 266 265 263
320 318 317 319 321 322 324 321 313 306 300 305 310 313 313 308 306 304 306 297 296 291 291 293 292 287 284 284 281 277 274 275 274 271 271 270 269 266
318 316 318 321 320 322 322 320 314 313 303 306 312 315 312 313 313 308 303 297 286 292 295 294 292 287 285 282 281 278 279 274 274 272 270 269 269 268
320 318 319 320 319 320 322 320 318 315 308 299 308 310 312 317 312 310 305 292 311 298 296 295 292 287 284 287 285 280 278 275 272 270 268 264 263 263
319 318 319 320 318 319 322 319 318 312 305 301 300 308 309 310 308 306 310 305 302 302 299 294 291 289 288 289 285 283 280 276 274 274 273 271 267 264
316 316 316 315 316 321 317 314 309 311 307 306 302 301 302 307 312 309 308 309 307 310 302 291 294 293 289 287 285 283 279 277 274 271 268 266 263 261
316 317 318 319 315 314 314 310 310 307 307 306 299 305 314 313 312 312 306 308 308 304 298 301 300 296 293 295 292 288 282 279 275 272 269 266 263 261
323 326 326 325 327 318 315 313 310 308 302 312 313 310 313 311 313 308 306 307 304 308 303 301 303 301 305 305 302 288 286 282 278 274 271 267 264 263
330 330 327 327 326 324 325 313 313 313 312 311 310 309 306 310 312 308 307 303 299 302 304 298 308 304 311 309 303 296 290 284 279 275 272 268 263 259
332 329 326 326 326 323 316 318 317 314 315 314 308 307 308 307 306 302 303 304 302 304 305 295 309 309 315 312 310 306 296 290 284 278 273 268 265 262
329 328 327 323 324 320 319 319 317 314 321 321 310 307 309 309 308 309 307 309 305 307 313 305 310 305 312 312 309 308 298 292 287 279 272 268 265 262
326 330 324 324 322 322 319 318 313 323 327 316 315 317 323 329 325 320 318 310 306 307 313 308 310 311 309 307 308 312 313 315 304 291 280 268 263 259
322 322 326 326 323 320 320 311 320 320 313 315 325 332 334 332 331 330 327 322 314 306 321 312 308 315 305 306 311 317 319 320 315 308 299 289 275 256
318 323 327 323 320 320 320 324 321 317 323 333 332 329 333 334 333 333 333 332 328 321 329 329 314 315 312 305 305 322 327 327 325 322 322 316 304 277
320 323 316 322 323 326 331 327 329 338 336 330 327 332 334 335 336 339 338 339 336 341 343 342 331 325 318 308 307 322 330 339 344 342 339 333 325 293
326 317 321 325 330 334 336 342 344 340 329 330 333 334 337 340 341 344 341 345 342 346 353 352 343 336 325 322 322 333 351 327 352 358 355 4 8 311
320 320 330 337 339 340 341 344 345 343 341 339 336 337 341 343 344 348 348 346 346 346 349 355 355 355 354 357 357 1 358 358 10 13 9 9 30 39
324 331 337 338 338 340 341 342 343 343 341 339 338 341 342 344 345 349 350 350 348 350 351 354 358 2 13 22 17 5 11 10 22 28 22 11 23 52
336 337 337 338 338 340 341 340 339 341 340 339 340 343 343 345 347 349 350 350 349 350 351 359 2 3 354 346 21 32 19 17 28 34 29 30 28 39
340 338 337 337 339 339 339 339 338 339 340 342 341 343 347 346 346 347 348 349 346 346 350 360 5 4 352 344 345 32 41 33 31 30 34 34 42 64
339 337 337 338 339 339 339 338 336 338 340 339 342 343 345 346 344 345 344 349 345 348 351 354 1 4 19 46 39 38 45 45 41 38 42 44 38 54
337 335 337 338 340 340 339 337 337 341 342 342 340 341 344 346 345 344 344 346 346 348 351 355 4 14 32 44 41 43 47 55 56 58 63 62 57 56
336 335 337 340 342 340 338 337 339 340 340 338 339 341 344 344 346 347 346 346 348 350 352 5 12 20 35 51 46 46 55 61 63 60 62 72 76 79
Wind_Speed_850mb
47 47 52 53 54 58 57 54 56 66 88 62 56 76 67 70 68 69 74 72 67 70 72 80 82 82 81 82 85 88 87 89 87 85 86 84 85 88
50 54 55 56 61 62 61 59 54 60 77 91 90 85 79 76 79 72 79 71 74 69 71 75 89 91 97 97 93 94 94 93 87 86 87 86 86 88
52 53 57 59 64 63 64 62 59 59 74 102 94 96 98 98 91 86 80 76 75 62 82 93 92 84 82 82 83 83 84 91 94 93 95 96 95 95
54 55 59 61 64 66 70 65 66 65 69 80 97 110 99 98 98 89 78 53 84 78 83 78 77 79 79 76 81 84 85 88 89 92 94 94 95 93
55 57 61 61 66 70 68 70 70 68 68 76 94 101 98 89 87 84 87 86 79 76 76 74 70 70 76 85 81 83 84 84 84 83 83 82 83 86
57 57 59 62 66 64 66 66 68 78 82 87 89 87 84 75 81 85 96 82 86 86 76 66 84 86 80 79 80 81 82 84 85 86 86 88 90 90
59 61 63 61 54 52 58 72 74 77 83 84 87 73 82 81 84 89 90 91 84 81 87 86 77 80 89 86 80 77 75 74 77 78 80 81 83 84
61 61 57 55 57 60 62 62 60 70 81 66 92 85 92 88 92 89 82 91 97 83 65 102 92 91 91 86 79 74 75 78 80 81 81 83 84 85
59 60 57 59 65 67 72 68 72 59 67 71 84 81 85 90 84 91 94 85 89 97 80 92 89 91 90 86 79 76 76 78 78 80 82 82 83 84
59 56 59 67 63 67 74 67 84 85 83 75 67 77 79 84 87 83 85 90 92 89 68 79 91 94 91 89 86 77 69 68 68 71 74 77 79 81
62 62 60 60 69 65 68 82 81 87 66 70 63 74 77 63 61 67 78 79 87 87 86 76 85 87 97 94 70 68 67 67 69 72 77 80 81 82
68 67 63 66 63 62 71 75 80 70 78 76 85 68 61 63 61 60 67 76 79 90 75 74 86 79 67 74 68 87 80 79 68 70 73 79 82 85
73 75 79 65 64 67 61 63 59 68 73 72 67 71 71 72 69 66 64 65 76 81 79 68 77 78 63 84 87 90 75 79 78 68 57 58 62 75
68 76 71 68 66 62 55 50 56 58 62 65 71 74 74 74 71 68 64 63 62 68 65 56 67 70 78 84 85 88 84 79 64 61 64 65 63 58
64 65 67 66 62 56 49 51 52 60 62 67 71 70 72 73 73 72 67 65 66 61 59 54 56 61 63 72 80 81 85 77 58 68 67 57 53 43
66 71 67 58 51 49 52 58 61 60 55 62 66 68 71 74 73 69 73 72 74 71 63 60 53 51 56 53 56 68 67 60 73 65 57 57 42 4
59 62 59 58 57 55 59 63 65 63 64 63 65 68 73 74 73 68 69 70 68 72 74 68 52 47 35 36 55 68 68 68 62 67 60 65 54 23
54 56 58 57 58 59 65 70 68 66 65 63 61 67 72 73 72 71 66 67 67 68 67 62 60 59 56 46 59 76 74 71 61 67 74 58 71 25
52 55 57 57 58 61 67 69 70 67 65 62 63 66 68 68 69 69 68 66 66 65 58 55 56 56 60 51 57 67 85 77 64 68 74 76 68 63
52 56 58 57 58 63 68 68 68 68 63 62 61 61 65 67 67 66 64 62 62 60 55 49 50 51 47 37 35 64 75 84 86 69 68 74 76 61
56 57 56 56 59 65 67 66 66 66 63 60 57 62 66 66 62 60 59 55 53 54 50 48 45 35 26 29 43 52 60 67 73 81 75 66 79 94
56 57 54 54 60 65 64 65 65 62 59 59 61 63 63 60 57 57 51 55 51 45 37 35 35 32 28 33 38 40 52 63 69 72 82 92 73 75
55 55 54 55 63 64 63 62 60 60 61 62 60 60 59 54 48 48 44 50 44 37 30 30 31 30 27 30 30 37 47 56 67 73 79 83 88 88
Wind_Direction_850mb
319 319 317 318 318 321 321 319 314 308 309 311 309 311 310 309 307 304 299 299 297 294 292 291 292 289 285 285 286 280 278 274 272 269 267 266 265 263
320 318 317 319 321 322 324 321 313 306 300 305 310 313 313 308 306 304 306 297 296 291 291 293 292 287 284 284 281 277 274 275 274 271 271 270 269 266
318 316 318 321 320 322 322 320 314 313 303 306 312 315 312 313 313 308 303 297 286 292 295 294 292 287 285 282 281 278 279 274 274 272 270 269 269 268
320 318 319 320 319 320 322 320 318 315 308 299 308 310 312 317 312 310 305 292 311 298 296 295 292 287 284 287 285 280 278 275 272 270 268 264 263 263
319 318 319 320 318 319 322 319 318 312 305 301 300 308 309 310 308 306 310 305 302 302 299 294 291 289 288 289 285 283 280 276 274 274 273 271 267 264
316 316 316 315 316 321 317 314 309 311 307 306 302 301 302 307 312 309 308 309 307 310 302 291 294 293 289 287 285 283 279 277 274 271 268 266 263 261
316 317 318 319 315 314 314 310 310 307 307 306 299 305 314 313 312 312 306 308 308 304 298 301 300 296 293 295 292 288 282 279 275 272 269 266 263 261
323 326 326 325 327 318 315 313 310 308 302 312 313 310 313 311 313 308 306 307 304 308 303 301 303 301 305 305 302 288 286 282 278 274 271 267 264 263
330 330 327 327 326 324 325 313 313 313 312 311 310 309 306 310 312 308 307 303 299 302 304 298 308 304 311 309 303 296 290 284 279 275 272 268 263 259
332 329 326 326 326 323 316 318 317 314 315 314 308 307 308 307 306 302 303 304 302 304 305 295 309 309 315 312 310 306 296 290 284 278 273 268 265 262
329 328 327 323 324 320 319 319 317 314 321 321 310 307 309 309 308 309 307 309 305 307 313 305 310 305 312 312 309 308 298 292 287 279 272 268 265 262
326 330 324 324 322 322 319 318 313 323 327 316 315 317 323 329 325 320 318 310 306 307 313 308 310 311 309 307 308 312 313 315 304 291 280 268 263 259
322 322 326 326 323 320 320 311 320 320 313 315 325 332 334 332 331 330 327 322 314 306 321 312 308 315 305 306 311 317 319 320 315 308 299 289 275 256
318 323 327 323 320 320 320 324 321 317 323 333 332 329 333 334 333 333 333 332 328 321 329 329 314 315 312 305 305 322 327 327 325 322 322 316 304 277
320 323 316 322 323 326 331 327 329 338 336 330 327 332 334 335 336 339 338 339 336 341 343 342 331 325 318 308 307 322 330 339 344 342 339 333 325 293
326 317 321 325 330 334 336 342 344 340 329 330 333 334 337 340 341 344 341 345 342 346 353 352 343 336 325 322 322 333 351 327 352 358 355 4 8 311
320 320 330 337 339 340 341 344 345 343 341 339 336 337 341 343 344 348 348 346 346 346 349 355 355 355 354 357 357 1 358 358 10 13 9 9 30 39
324 331 337 338 338 340 341 342 343 343 341 339 338 341 342 344 345 349 350 350 348 350 351 354 358 2 13 22 17 5 11 10 22 28 22 11 23 52
336 337 337 338 338 340 341 340 339 341 340 339 340 343 343 345 347 349 350 350 349 350 351 359 2 3 354 346 21 32 19 17 28 34 29 30 28 39
340 338 337 337 339 339 339 339 338 339 340 342 341 343 347 346 346 347 348 349 346 346 350 360 5 4 352 344 345 32 41 33 31 30 34 34 42 64
339 337 337 338 339 339 339 338 336 338 340 339 342 343 345 346 344 345 344 349 345 348 351 354 1 4 19 46 39 38 45 45 41 38 42 44 38 54
337 335 337 338 340 340 339 337 337 341 342 342 340 341 344 346 345 344 344 346 346 348 351 355 4 14 32 44 41 43 47 55 56 58 63 62 57 56
336 335 337 340 342 340 338 337 339 340 340 338 339 341 344 344 346 347 346 346 348 350 352 5 12 20 35 51 46 46 55 61 63 60 62 72 76 79